Year,Month,Day,Hour,Minute,Value (Times are PST for temperature in C)
2011,01,13,00,00,3.70
2011,01,13,00,01,3.70
2011,01,13,00,02,3.70
2011,01,13,00,03,3.80
2011,01,13,00,04,3.80
2011,01,13,00,05,3.80
2011,01,13,00,06,3.80
2011,01,13,00,07,3.80
2011,01,13,00,08,3.80
2011,01,13,00,09,3.80
2011,01,13,00,10,3.80
2011,01,13,00,11,3.80
2011,01,13,00,12,3.80
2011,01,13,00,13,3.80
2011,01,13,00,14,3.80
2011,01,13,00,15,3.80
2011,01,13,00,16,3.80
2011,01,13,00,17,3.80
2011,01,13,00,18,3.80
2011,01,13,00,19,3.80
2011,01,13,00,20,3.80
2011,01,13,00,21,3.80
2011,01,13,00,22,3.90
2011,01,13,00,23,3.90
2011,01,13,00,24,3.90
2011,01,13,00,25,3.90
2011,01,13,00,26,3.90
2011,01,13,00,27,3.90
2011,01,13,00,28,3.90
2011,01,13,00,29,3.90
2011,01,13,00,30,3.90
2011,01,13,00,31,3.90
2011,01,13,00,32,4.00
2011,01,13,00,33,4.00
2011,01,13,00,34,4.10
2011,01,13,00,35,4.10
2011,01,13,00,36,4.20
2011,01,13,00,37,4.20
2011,01,13,00,38,4.20
2011,01,13,00,39,4.20
2011,01,13,00,40,4.20
2011,01,13,00,41,4.20
2011,01,13,00,42,4.20
2011,01,13,00,43,4.20
2011,01,13,00,44,4.20
2011,01,13,00,45,4.20
2011,01,13,00,46,4.20
2011,01,13,00,47,4.20
2011,01,13,00,48,4.20
2011,01,13,00,49,4.20
2011,01,13,00,50,4.20
2011,01,13,00,51,4.20
2011,01,13,00,52,4.20
2011,01,13,00,53,4.20
2011,01,13,00,54,4.20
2011,01,13,00,55,4.30
2011,01,13,00,56,4.30
2011,01,13,00,57,4.30
2011,01,13,00,58,4.40
2011,01,13,00,59,4.40
2011,01,13,01,00,4.50
2011,01,13,01,01,4.60
2011,01,13,01,02,4.60
2011,01,13,01,03,4.70
2011,01,13,01,04,4.70
2011,01,13,01,05,4.80
2011,01,13,01,06,4.80
2011,01,13,01,07,4.90
2011,01,13,01,08,4.90
2011,01,13,01,09,4.90
2011,01,13,01,10,4.90
2011,01,13,01,11,4.90
2011,01,13,01,12,4.90
2011,01,13,01,13,4.90
2011,01,13,01,14,4.90
2011,01,13,01,15,4.90
2011,01,13,01,16,4.90
2011,01,13,01,17,4.90
2011,01,13,01,18,5.00
2011,01,13,01,19,5.10
2011,01,13,01,20,5.10
2011,01,13,01,21,5.10
2011,01,13,01,22,5.10
2011,01,13,01,23,5.10
2011,01,13,01,24,5.20
2011,01,13,01,25,5.20
2011,01,13,01,26,5.20
2011,01,13,01,27,5.20
2011,01,13,01,28,5.20
2011,01,13,01,29,5.20
2011,01,13,01,30,5.20
2011,01,13,01,31,5.20
2011,01,13,01,32,5.20
2011,01,13,01,33,5.20
2011,01,13,01,34,5.30
2011,01,13,01,35,5.30
2011,01,13,01,36,5.30
2011,01,13,01,37,5.30
2011,01,13,01,38,5.30
2011,01,13,01,39,5.40
2011,01,13,01,40,5.40
2011,01,13,01,41,5.40
2011,01,13,01,42,5.40
2011,01,13,01,43,5.40
2011,01,13,01,44,5.50
2011,01,13,01,45,5.50
2011,01,13,01,46,5.60
2011,01,13,01,47,5.70
2011,01,13,01,48,5.70
2011,01,13,01,49,5.80
2011,01,13,01,50,5.80
2011,01,13,01,51,5.80
2011,01,13,01,52,5.90
2011,01,13,01,53,5.90
2011,01,13,01,54,5.90
2011,01,13,01,55,5.90
2011,01,13,01,56,5.90
2011,01,13,01,57,5.80
2011,01,13,01,58,5.80
2011,01,13,01,59,5.80
2011,01,13,02,00,5.80
2011,01,13,02,01,5.80
2011,01,13,02,02,5.80
2011,01,13,02,03,5.80
2011,01,13,02,04,5.80
2011,01,13,02,05,5.90
2011,01,13,02,06,5.90
2011,01,13,02,07,5.90
2011,01,13,02,08,5.90
2011,01,13,02,09,6.00
2011,01,13,02,10,5.90
2011,01,13,02,11,6.00
2011,01,13,02,12,6.00
2011,01,13,02,13,6.00
2011,01,13,02,14,6.00
2011,01,13,02,15,6.00
2011,01,13,02,16,6.00
2011,01,13,02,17,6.10
2011,01,13,02,18,6.10
2011,01,13,02,19,6.10
2011,01,13,02,20,6.10
2011,01,13,02,21,6.10
2011,01,13,02,22,6.10
2011,01,13,02,23,6.10
2011,01,13,02,24,6.10
2011,01,13,02,25,6.10
2011,01,13,02,26,6.10
2011,01,13,02,27,6.10
2011,01,13,02,28,6.10
2011,01,13,02,29,6.10
2011,01,13,02,30,6.10
2011,01,13,02,31,6.10
2011,01,13,02,32,6.10
2011,01,13,02,33,6.10
2011,01,13,02,34,6.10
2011,01,13,02,35,6.10
2011,01,13,02,36,6.10
2011,01,13,02,37,6.10
2011,01,13,02,38,6.10
2011,01,13,02,39,6.10
2011,01,13,02,40,6.10
2011,01,13,02,41,6.10
2011,01,13,02,42,6.10
2011,01,13,02,43,6.10
2011,01,13,02,44,6.10
2011,01,13,02,45,6.10
2011,01,13,02,46,6.10
2011,01,13,02,47,6.10
2011,01,13,02,48,6.10
2011,01,13,02,49,6.10
2011,01,13,02,50,6.10
2011,01,13,02,51,6.10
2011,01,13,02,52,6.10
2011,01,13,02,53,6.10
2011,01,13,02,54,6.10
2011,01,13,02,55,6.10
2011,01,13,02,56,6.10
2011,01,13,02,57,6.10
2011,01,13,02,58,6.10
2011,01,13,02,59,6.10
2011,01,13,03,00,6.10
2011,01,13,03,01,6.10
2011,01,13,03,02,6.10
2011,01,13,03,03,6.10
2011,01,13,03,04,6.10
2011,01,13,03,05,6.10
2011,01,13,03,06,6.10
2011,01,13,03,07,6.00
2011,01,13,03,08,6.00
2011,01,13,03,09,6.00
2011,01,13,03,10,6.00
2011,01,13,03,11,6.00
2011,01,13,03,12,6.00
2011,01,13,03,13,6.00
2011,01,13,03,14,5.90
2011,01,13,03,15,5.90
2011,01,13,03,16,5.90
2011,01,13,03,17,5.90
2011,01,13,03,18,5.90
2011,01,13,03,19,5.90
2011,01,13,03,20,5.90
2011,01,13,03,21,5.90
2011,01,13,03,22,5.90
2011,01,13,03,23,5.80
2011,01,13,03,24,5.80
2011,01,13,03,25,5.80
2011,01,13,03,26,5.80
2011,01,13,03,27,5.80
2011,01,13,03,28,5.80
2011,01,13,03,29,5.80
2011,01,13,03,30,5.80
2011,01,13,03,31,5.80
2011,01,13,03,32,5.80
2011,01,13,03,33,5.80
2011,01,13,03,34,5.70
2011,01,13,03,35,5.70
2011,01,13,03,36,5.70
2011,01,13,03,37,5.70
2011,01,13,03,38,5.70
2011,01,13,03,39,5.70
2011,01,13,03,40,5.70
2011,01,13,03,41,5.70
2011,01,13,03,42,5.70
2011,01,13,03,43,5.70
2011,01,13,03,44,5.70
2011,01,13,03,45,5.70
2011,01,13,03,46,5.70
2011,01,13,03,47,5.70
2011,01,13,03,48,5.70
2011,01,13,03,49,5.70
2011,01,13,03,50,5.60
2011,01,13,03,51,5.60
2011,01,13,03,52,5.60
2011,01,13,03,53,5.60
2011,01,13,03,54,5.60
2011,01,13,03,55,5.60
2011,01,13,03,56,5.60
2011,01,13,03,57,5.50
2011,01,13,03,58,5.50
2011,01,13,03,59,5.60
2011,01,13,04,00,5.60
2011,01,13,04,01,5.60
2011,01,13,04,02,5.60
2011,01,13,04,03,5.60
2011,01,13,04,04,5.60
2011,01,13,04,05,5.60
2011,01,13,04,06,5.60
2011,01,13,04,07,5.50
2011,01,13,04,08,5.50
2011,01,13,04,09,5.50
2011,01,13,04,10,5.50
2011,01,13,04,11,5.50
2011,01,13,04,12,5.50
2011,01,13,04,13,5.50
2011,01,13,04,14,5.50
2011,01,13,04,15,5.50
2011,01,13,04,16,5.40
2011,01,13,04,17,5.40
2011,01,13,04,18,5.40
2011,01,13,04,19,5.30
2011,01,13,04,20,5.30
2011,01,13,04,21,5.30
2011,01,13,04,22,5.30
2011,01,13,04,23,5.30
2011,01,13,04,24,5.30
2011,01,13,04,25,5.30
2011,01,13,04,26,5.30
2011,01,13,04,27,5.30
2011,01,13,04,28,5.30
2011,01,13,04,29,5.30
2011,01,13,04,30,5.30
2011,01,13,04,31,5.30
2011,01,13,04,32,5.30
2011,01,13,04,33,5.30
2011,01,13,04,34,5.30
2011,01,13,04,35,5.30
2011,01,13,04,36,5.30
2011,01,13,04,37,5.30
2011,01,13,04,38,5.30
2011,01,13,04,39,5.30
2011,01,13,04,40,5.30
2011,01,13,04,41,5.30
2011,01,13,04,42,5.30
2011,01,13,04,43,5.30
2011,01,13,04,44,5.30
2011,01,13,04,45,5.30
2011,01,13,04,46,5.30
2011,01,13,04,47,5.30
2011,01,13,04,48,5.30
2011,01,13,04,49,5.30
2011,01,13,04,50,5.30
2011,01,13,04,51,5.40
2011,01,13,04,52,5.40
2011,01,13,04,53,5.40
2011,01,13,04,54,5.40
2011,01,13,04,55,5.40
2011,01,13,04,56,5.30
2011,01,13,04,57,5.30
2011,01,13,04,58,5.30
2011,01,13,04,59,5.30
2011,01,13,05,00,5.30
2011,01,13,05,01,5.30
2011,01,13,05,02,5.30
2011,01,13,05,03,5.30
2011,01,13,05,04,5.20
2011,01,13,05,05,5.20
2011,01,13,05,06,5.20
2011,01,13,05,07,5.20
2011,01,13,05,08,5.20
2011,01,13,05,09,5.20
2011,01,13,05,10,5.20
2011,01,13,05,11,5.20
2011,01,13,05,12,5.20
2011,01,13,05,13,5.10
2011,01,13,05,14,5.10
2011,01,13,05,15,5.10
2011,01,13,05,16,5.10
2011,01,13,05,17,5.10
2011,01,13,05,18,5.10
2011,01,13,05,19,5.10
2011,01,13,05,20,5.10
2011,01,13,05,21,5.10
2011,01,13,05,22,5.10
2011,01,13,05,23,5.10
2011,01,13,05,24,5.10
2011,01,13,05,25,5.10
2011,01,13,05,26,5.20
2011,01,13,05,27,5.20
2011,01,13,05,28,5.20
2011,01,13,05,29,5.20
2011,01,13,05,30,5.20
2011,01,13,05,31,5.20
2011,01,13,05,32,5.20
2011,01,13,05,33,5.20
2011,01,13,05,34,5.20
2011,01,13,05,35,5.20
2011,01,13,05,36,5.20
2011,01,13,05,37,5.20
2011,01,13,05,38,5.20
2011,01,13,05,39,5.20
2011,01,13,05,40,5.20
2011,01,13,05,41,5.20
2011,01,13,05,42,5.20
2011,01,13,05,43,5.20
2011,01,13,05,44,5.20
2011,01,13,05,45,5.20
2011,01,13,05,46,5.20
2011,01,13,05,47,5.20
2011,01,13,05,48,5.20
2011,01,13,05,49,5.20
2011,01,13,05,50,5.20
2011,01,13,05,51,5.20
2011,01,13,05,52,5.20
2011,01,13,05,53,5.20
2011,01,13,05,54,5.20
2011,01,13,05,55,5.10
2011,01,13,05,56,5.10
2011,01,13,05,57,5.10
2011,01,13,05,58,5.10
2011,01,13,05,59,5.10
2011,01,13,06,00,5.10
2011,01,13,06,01,5.10
2011,01,13,06,02,5.10
2011,01,13,06,03,5.10
2011,01,13,06,04,5.10
2011,01,13,06,05,5.10
2011,01,13,06,06,5.10
2011,01,13,06,07,5.10
2011,01,13,06,08,5.10
2011,01,13,06,09,5.10
2011,01,13,06,10,5.10
2011,01,13,06,11,5.10
2011,01,13,06,12,5.10
2011,01,13,06,13,5.10
2011,01,13,06,14,5.10
2011,01,13,06,15,5.10
2011,01,13,06,16,5.10
2011,01,13,06,17,5.10
2011,01,13,06,18,5.10
2011,01,13,06,19,5.10
2011,01,13,06,20,5.10
2011,01,13,06,21,5.10
2011,01,13,06,22,5.10
2011,01,13,06,23,5.10
2011,01,13,06,24,5.10
2011,01,13,06,25,5.10
2011,01,13,06,26,5.10
2011,01,13,06,27,5.10
2011,01,13,06,28,5.10
2011,01,13,06,29,5.10
2011,01,13,06,30,5.10
2011,01,13,06,31,5.10
2011,01,13,06,32,5.10
2011,01,13,06,33,5.10
2011,01,13,06,34,5.10
2011,01,13,06,35,5.10
2011,01,13,06,36,5.10
2011,01,13,06,37,5.10
2011,01,13,06,38,5.10
2011,01,13,06,39,5.10
2011,01,13,06,40,5.10
2011,01,13,06,41,5.10
2011,01,13,06,42,5.10
2011,01,13,06,43,5.10
2011,01,13,06,44,5.10
2011,01,13,06,45,5.10
2011,01,13,06,46,5.10
2011,01,13,06,47,5.10
2011,01,13,06,48,5.10
2011,01,13,06,49,5.10
2011,01,13,06,50,5.10
2011,01,13,06,51,5.10
2011,01,13,06,52,5.10
2011,01,13,06,53,5.10
2011,01,13,06,54,5.10
2011,01,13,06,55,5.10
2011,01,13,06,56,5.10
2011,01,13,06,57,5.10
2011,01,13,06,58,5.10
2011,01,13,06,59,5.10
2011,01,13,07,00,5.10
2011,01,13,07,01,5.10
2011,01,13,07,02,5.10
2011,01,13,07,03,5.10
2011,01,13,07,04,5.10
2011,01,13,07,05,5.10
2011,01,13,07,06,5.10
2011,01,13,07,07,5.00
2011,01,13,07,08,4.90
2011,01,13,07,09,4.90
2011,01,13,07,10,4.90
2011,01,13,07,11,4.90
2011,01,13,07,12,4.90
2011,01,13,07,13,4.90
2011,01,13,07,14,4.90
2011,01,13,07,15,4.90
2011,01,13,07,16,4.90
2011,01,13,07,17,4.90
2011,01,13,07,18,4.90
2011,01,13,07,19,4.90
2011,01,13,07,20,4.90
2011,01,13,07,21,4.90
2011,01,13,07,22,4.90
2011,01,13,07,23,4.90
2011,01,13,07,24,4.90
2011,01,13,07,25,4.90
2011,01,13,07,26,4.90
2011,01,13,07,27,4.90
2011,01,13,07,28,4.90
2011,01,13,07,29,5.00
2011,01,13,07,30,5.10
2011,01,13,07,31,5.10
2011,01,13,07,32,5.10
2011,01,13,07,33,5.10
2011,01,13,07,34,5.10
2011,01,13,07,35,5.10
2011,01,13,07,36,5.00
2011,01,13,07,37,4.90
2011,01,13,07,38,4.90
2011,01,13,07,39,4.90
2011,01,13,07,40,4.90
2011,01,13,07,41,4.90
2011,01,13,07,42,4.90
2011,01,13,07,43,4.90
2011,01,13,07,44,4.90
2011,01,13,07,45,4.90
2011,01,13,07,46,4.90
2011,01,13,07,47,4.90
2011,01,13,07,48,4.90
2011,01,13,07,49,4.90
2011,01,13,07,50,4.90
2011,01,13,07,51,4.90
2011,01,13,07,52,4.90
2011,01,13,07,53,4.90
2011,01,13,07,54,4.90
2011,01,13,07,55,4.90
2011,01,13,07,56,4.90
2011,01,13,07,57,4.90
2011,01,13,07,58,4.90
2011,01,13,07,59,4.90
2011,01,13,08,00,4.90
2011,01,13,08,01,4.90
2011,01,13,08,02,4.90
2011,01,13,08,03,4.90
2011,01,13,08,04,4.90
2011,01,13,08,05,4.90
2011,01,13,08,06,4.90
2011,01,13,08,07,4.90
2011,01,13,08,08,4.90
2011,01,13,08,09,4.90
2011,01,13,08,10,4.90
2011,01,13,08,11,4.90
2011,01,13,08,12,4.90
2011,01,13,08,13,4.90
2011,01,13,08,14,4.90
2011,01,13,08,15,4.90
2011,01,13,08,16,4.90
2011,01,13,08,17,4.90
2011,01,13,08,18,4.90
2011,01,13,08,19,4.90
2011,01,13,08,20,4.90
2011,01,13,08,21,4.90
2011,01,13,08,22,4.90
2011,01,13,08,23,4.90
2011,01,13,08,24,5.00
2011,01,13,08,25,5.10
2011,01,13,08,26,5.10
2011,01,13,08,27,5.10
2011,01,13,08,28,5.10
2011,01,13,08,29,5.10
2011,01,13,08,30,5.10
2011,01,13,08,31,5.10
2011,01,13,08,32,5.10
2011,01,13,08,33,5.10
2011,01,13,08,34,5.10
2011,01,13,08,35,5.10
2011,01,13,08,36,5.10
2011,01,13,08,37,5.10
2011,01,13,08,38,5.10
2011,01,13,08,39,5.10
2011,01,13,08,40,5.10
2011,01,13,08,41,5.10
2011,01,13,08,42,5.00
2011,01,13,08,43,4.90
2011,01,13,08,44,4.90
2011,01,13,08,45,4.90
2011,01,13,08,46,4.90
2011,01,13,08,47,4.90
2011,01,13,08,48,4.90
2011,01,13,08,49,4.90
2011,01,13,08,50,4.90
2011,01,13,08,51,4.90
2011,01,13,08,52,4.90
2011,01,13,08,53,4.90
2011,01,13,08,54,5.10
2011,01,13,08,55,5.10
2011,01,13,08,56,5.10
2011,01,13,08,57,5.10
2011,01,13,08,58,5.10
2011,01,13,08,59,5.10
2011,01,13,09,00,5.10
2011,01,13,09,01,5.10
2011,01,13,09,02,5.10
2011,01,13,09,03,5.10
2011,01,13,09,04,5.10
2011,01,13,09,05,5.10
2011,01,13,09,06,5.10
2011,01,13,09,07,5.10
2011,01,13,09,08,5.20
2011,01,13,09,09,5.20
2011,01,13,09,10,5.20
2011,01,13,09,11,5.10
2011,01,13,09,12,5.10
2011,01,13,09,13,5.10
2011,01,13,09,14,5.10
2011,01,13,09,15,5.10
2011,01,13,09,16,5.10
2011,01,13,09,17,5.10
2011,01,13,09,18,5.10
2011,01,13,09,19,5.10
2011,01,13,09,20,5.10
2011,01,13,09,21,5.10
2011,01,13,09,22,5.10
2011,01,13,09,23,5.10
2011,01,13,09,24,5.10
2011,01,13,09,25,5.10
2011,01,13,09,26,5.10
2011,01,13,09,27,5.10
2011,01,13,09,28,5.10
2011,01,13,09,29,5.10
2011,01,13,09,30,5.10
2011,01,13,09,31,5.10
2011,01,13,09,32,5.10
2011,01,13,09,33,5.10
2011,01,13,09,34,5.10
2011,01,13,09,35,5.10
2011,01,13,09,36,5.10
2011,01,13,09,37,5.10
2011,01,13,09,38,5.10
2011,01,13,09,39,5.10
2011,01,13,09,40,5.10
2011,01,13,09,41,5.10
2011,01,13,09,42,5.10
2011,01,13,09,43,5.10
2011,01,13,09,44,5.20
2011,01,13,09,45,5.20
2011,01,13,09,46,5.20
2011,01,13,09,47,5.30
2011,01,13,09,48,5.30
2011,01,13,09,49,5.30
2011,01,13,09,50,5.40
2011,01,13,09,51,5.40
2011,01,13,09,52,5.40
2011,01,13,09,53,5.50
2011,01,13,09,54,5.50
2011,01,13,09,55,5.50
2011,01,13,09,56,5.50
2011,01,13,09,57,5.60
2011,01,13,09,58,5.60
2011,01,13,09,59,5.60
2011,01,13,10,00,5.70
2011,01,13,10,01,5.70
2011,01,13,10,02,5.80
2011,01,13,10,03,5.80
2011,01,13,10,04,6.00
2011,01,13,10,05,6.00
2011,01,13,10,06,6.10
2011,01,13,10,07,6.20
2011,01,13,10,08,6.20
2011,01,13,10,09,6.30
2011,01,13,10,10,6.40
2011,01,13,10,11,6.50
2011,01,13,10,12,6.60
2011,01,13,10,13,6.70
2011,01,13,10,14,6.80
2011,01,13,10,15,6.90
2011,01,13,10,16,7.00
2011,01,13,10,17,7.10
2011,01,13,10,18,7.20
2011,01,13,10,19,7.30
2011,01,13,10,20,7.40
2011,01,13,10,21,7.50
2011,01,13,10,22,7.60
2011,01,13,10,23,7.80
2011,01,13,10,24,7.90
2011,01,13,10,25,8.10
2011,01,13,10,26,8.40
2011,01,13,10,27,8.60
2011,01,13,10,28,8.80
2011,01,13,10,29,8.90
2011,01,13,10,30,9.10
2011,01,13,10,31,9.20
2011,01,13,10,32,9.40
2011,01,13,10,33,9.50
2011,01,13,10,34,9.60
2011,01,13,10,35,9.70
2011,01,13,10,36,9.70
2011,01,13,10,37,9.80
2011,01,13,10,38,9.90
2011,01,13,10,39,10.00
2011,01,13,10,40,10.10
2011,01,13,10,41,10.10
2011,01,13,10,42,10.10
2011,01,13,10,43,10.20
2011,01,13,10,44,10.30
2011,01,13,10,45,10.30
2011,01,13,10,46,10.40
2011,01,13,10,47,10.40
2011,01,13,10,48,10.50
2011,01,13,10,49,10.60
2011,01,13,10,50,10.60
2011,01,13,10,51,10.60
2011,01,13,10,52,10.60
2011,01,13,10,53,10.70
2011,01,13,10,54,10.80
2011,01,13,10,55,10.80
2011,01,13,10,56,10.80
2011,01,13,10,57,10.80
2011,01,13,10,58,10.70
2011,01,13,10,59,10.70
2011,01,13,11,00,10.70
2011,01,13,11,01,10.70
2011,01,13,11,02,10.60
2011,01,13,11,03,10.60
2011,01,13,11,04,10.60
2011,01,13,11,05,10.60
2011,01,13,11,06,10.60
2011,01,13,11,07,10.60
2011,01,13,11,08,10.60
2011,01,13,11,09,10.70
2011,01,13,11,10,10.70
2011,01,13,11,11,10.70
2011,01,13,11,12,10.70
2011,01,13,11,13,10.60
2011,01,13,11,14,10.60
2011,01,13,11,15,10.60
2011,01,13,11,16,10.60
2011,01,13,11,17,10.70
2011,01,13,11,18,10.70
2011,01,13,11,19,10.70
2011,01,13,11,20,10.70
2011,01,13,11,21,10.70
2011,01,13,11,22,10.70
2011,01,13,11,23,10.70
2011,01,13,11,24,10.70
2011,01,13,11,25,10.70
2011,01,13,11,26,10.80
2011,01,13,11,27,10.80
2011,01,13,11,28,10.80
2011,01,13,11,29,10.80
2011,01,13,11,30,10.80
2011,01,13,11,31,10.90
2011,01,13,11,32,10.90
2011,01,13,11,33,10.90
2011,01,13,11,34,10.80
2011,01,13,11,35,10.90
2011,01,13,11,36,10.90
2011,01,13,11,37,10.90
2011,01,13,11,38,10.90
2011,01,13,11,39,10.90
2011,01,13,11,40,10.90
2011,01,13,11,41,10.90
2011,01,13,11,42,10.80
2011,01,13,11,43,10.80
2011,01,13,11,44,10.80
2011,01,13,11,45,10.80
2011,01,13,11,46,10.80
2011,01,13,11,47,10.70
2011,01,13,11,48,10.70
2011,01,13,11,49,10.70
2011,01,13,11,50,10.70
2011,01,13,11,51,10.70
2011,01,13,11,52,10.70
2011,01,13,11,53,10.70
2011,01,13,11,54,10.60
2011,01,13,11,55,10.60
2011,01,13,11,56,10.60
2011,01,13,11,57,10.70
2011,01,13,11,58,10.70
2011,01,13,11,59,10.70
2011,01,13,12,00,10.70
2011,01,13,12,01,10.70
2011,01,13,12,02,10.70
2011,01,13,12,03,10.60
2011,01,13,12,04,10.60
2011,01,13,12,05,10.60
2011,01,13,12,06,10.60
2011,01,13,12,07,10.60
2011,01,13,12,08,10.60
2011,01,13,12,09,10.60
2011,01,13,12,10,10.60
2011,01,13,12,11,10.60
2011,01,13,12,12,10.60
2011,01,13,12,13,10.60
2011,01,13,12,14,10.60
2011,01,13,12,15,10.60
2011,01,13,12,16,10.60
2011,01,13,12,17,10.50
2011,01,13,12,18,10.40
2011,01,13,12,19,10.40
2011,01,13,12,20,10.40
2011,01,13,12,21,10.40
2011,01,13,12,22,10.40
2011,01,13,12,23,10.40
2011,01,13,12,24,10.40
2011,01,13,12,25,10.40
2011,01,13,12,26,10.40
2011,01,13,12,27,10.40
2011,01,13,12,28,10.40
2011,01,13,12,29,10.40
2011,01,13,12,30,10.40
2011,01,13,12,31,10.40
2011,01,13,12,32,10.40
2011,01,13,12,33,10.30
2011,01,13,12,34,10.30
2011,01,13,12,35,10.30
2011,01,13,12,36,10.20
2011,01,13,12,37,10.20
2011,01,13,12,38,10.20
2011,01,13,12,39,10.20
2011,01,13,12,40,10.10
2011,01,13,12,41,10.10
2011,01,13,12,42,10.10
2011,01,13,12,43,10.10
2011,01,13,12,44,10.10
2011,01,13,12,45,10.10
2011,01,13,12,46,10.10
2011,01,13,12,47,10.10
2011,01,13,12,48,10.10
2011,01,13,12,49,10.10
2011,01,13,12,50,10.10
2011,01,13,12,51,10.10
2011,01,13,12,52,10.10
2011,01,13,12,53,10.10
2011,01,13,12,54,10.00
2011,01,13,12,55,9.90
2011,01,13,12,56,10.00
2011,01,13,12,57,10.10
2011,01,13,12,58,10.10
2011,01,13,12,59,10.10
2011,01,13,13,00,10.10
2011,01,13,13,01,10.10
2011,01,13,13,02,10.10
2011,01,13,13,03,10.10
2011,01,13,13,04,10.10
2011,01,13,13,05,10.10
2011,01,13,13,06,10.10
2011,01,13,13,07,10.10
2011,01,13,13,08,10.10
2011,01,13,13,09,10.10
2011,01,13,13,10,10.10
2011,01,13,13,11,10.10
2011,01,13,13,12,10.10
2011,01,13,13,13,10.10
2011,01,13,13,14,10.20
2011,01,13,13,15,10.20
2011,01,13,13,16,10.20
2011,01,13,13,17,10.10
2011,01,13,13,18,10.10
2011,01,13,13,19,10.10
2011,01,13,13,20,9.90
2011,01,13,13,21,9.80
2011,01,13,13,22,9.60
2011,01,13,13,23,9.50
2011,01,13,13,24,9.30
2011,01,13,13,25,9.10
2011,01,13,13,26,9.00
2011,01,13,13,27,8.90
2011,01,13,13,28,8.80
2011,01,13,13,29,8.70
2011,01,13,13,30,8.70
2011,01,13,13,31,8.70
2011,01,13,13,32,8.60
2011,01,13,13,33,8.60
2011,01,13,13,34,8.60
2011,01,13,13,35,8.50
2011,01,13,13,36,8.50
2011,01,13,13,37,8.50
2011,01,13,13,38,8.50
2011,01,13,13,39,8.40
2011,01,13,13,40,8.30
2011,01,13,13,41,8.30
2011,01,13,13,42,8.30
2011,01,13,13,43,8.20
2011,01,13,13,44,8.20
2011,01,13,13,45,8.20
2011,01,13,13,46,8.20
2011,01,13,13,47,8.20
2011,01,13,13,48,8.20
2011,01,13,13,49,8.30
2011,01,13,13,50,8.30
2011,01,13,13,51,8.30
2011,01,13,13,52,8.30
2011,01,13,13,53,8.30
2011,01,13,13,54,8.20
2011,01,13,13,55,8.20
2011,01,13,13,56,8.30
2011,01,13,13,57,8.30
2011,01,13,13,58,8.30
2011,01,13,13,59,8.30
2011,01,13,14,00,8.30
2011,01,13,14,01,8.30
2011,01,13,14,02,8.30
2011,01,13,14,03,8.30
2011,01,13,14,04,8.30
2011,01,13,14,05,8.40
2011,01,13,14,06,8.40
2011,01,13,14,07,8.30
2011,01,13,14,08,8.20
2011,01,13,14,09,8.20
2011,01,13,14,10,8.20
2011,01,13,14,11,8.20
2011,01,13,14,12,8.20
2011,01,13,14,13,8.30
2011,01,13,14,14,8.30
2011,01,13,14,15,8.30
2011,01,13,14,16,8.30
2011,01,13,14,17,8.30
2011,01,13,14,18,8.30
2011,01,13,14,19,8.40
2011,01,13,14,20,8.30
2011,01,13,14,21,8.40
2011,01,13,14,22,8.40
2011,01,13,14,23,8.40
2011,01,13,14,24,8.40
2011,01,13,14,25,8.40
2011,01,13,14,26,8.40
2011,01,13,14,27,8.30
2011,01,13,14,28,8.30
2011,01,13,14,29,8.20
2011,01,13,14,30,8.20
2011,01,13,14,31,8.20
2011,01,13,14,32,8.20
2011,01,13,14,33,8.20
2011,01,13,14,34,8.20
2011,01,13,14,35,8.30
2011,01,13,14,36,8.30
2011,01,13,14,37,8.30
2011,01,13,14,38,8.30
2011,01,13,14,39,8.30
2011,01,13,14,40,8.20
2011,01,13,14,41,8.20
2011,01,13,14,42,8.20
2011,01,13,14,43,8.30
2011,01,13,14,44,8.30
2011,01,13,14,45,8.30
2011,01,13,14,46,8.30
2011,01,13,14,47,8.40
2011,01,13,14,48,8.40
2011,01,13,14,49,8.40
2011,01,13,14,50,8.30
2011,01,13,14,51,8.30
2011,01,13,14,52,8.30
2011,01,13,14,53,8.30
2011,01,13,14,54,8.30
2011,01,13,14,55,8.30
2011,01,13,14,56,8.30
2011,01,13,14,57,8.40
2011,01,13,14,58,8.40
2011,01,13,14,59,8.40
2011,01,13,15,00,8.40
2011,01,13,15,01,8.40
2011,01,13,15,02,8.40
2011,01,13,15,03,8.40
2011,01,13,15,04,8.40
2011,01,13,15,05,8.40
2011,01,13,15,06,8.40
2011,01,13,15,07,8.30
2011,01,13,15,08,8.30
2011,01,13,15,09,8.30
2011,01,13,15,10,8.30
2011,01,13,15,11,8.30
2011,01,13,15,12,8.30
2011,01,13,15,13,8.30
2011,01,13,15,14,8.30
2011,01,13,15,15,8.30
2011,01,13,15,16,8.30
2011,01,13,15,17,8.30
2011,01,13,15,18,8.30
2011,01,13,15,19,8.30
2011,01,13,15,20,8.30
2011,01,13,15,21,8.40
2011,01,13,15,22,8.40
2011,01,13,15,23,8.40
2011,01,13,15,24,8.40
2011,01,13,15,25,8.40
2011,01,13,15,26,8.40
2011,01,13,15,27,8.40
2011,01,13,15,28,8.40
2011,01,13,15,29,8.40
2011,01,13,15,30,8.40
2011,01,13,15,31,8.40
2011,01,13,15,32,8.40
2011,01,13,15,33,8.40
2011,01,13,15,34,8.40
2011,01,13,15,35,8.40
2011,01,13,15,36,8.40
2011,01,13,15,37,8.40
2011,01,13,15,38,8.40
2011,01,13,15,39,8.40
2011,01,13,15,40,8.40
2011,01,13,15,41,8.40
2011,01,13,15,42,8.50
2011,01,13,15,43,8.50
2011,01,13,15,44,8.50
2011,01,13,15,45,8.50
2011,01,13,15,46,8.50
2011,01,13,15,47,8.60
2011,01,13,15,48,8.60
2011,01,13,15,49,8.60
2011,01,13,15,50,8.60
2011,01,13,15,51,8.70
2011,01,13,15,52,8.70
2011,01,13,15,53,8.70
2011,01,13,15,54,8.70
2011,01,13,15,55,8.80
2011,01,13,15,56,8.90
2011,01,13,15,57,9.00
2011,01,13,15,58,9.10
2011,01,13,15,59,9.10
2011,01,13,16,00,9.20
2011,01,13,16,01,9.20
2011,01,13,16,02,9.30
2011,01,13,16,03,9.40
2011,01,13,16,04,9.40
2011,01,13,16,05,9.50
2011,01,13,16,06,9.50
2011,01,13,16,07,9.60
2011,01,13,16,08,9.70
2011,01,13,16,09,9.70
2011,01,13,16,10,9.70
2011,01,13,16,11,9.80
2011,01,13,16,12,9.90
2011,01,13,16,13,9.90
2011,01,13,16,14,9.90
2011,01,13,16,15,9.90
2011,01,13,16,16,9.90
2011,01,13,16,17,9.90
2011,01,13,16,18,10.00
2011,01,13,16,19,10.10
2011,01,13,16,20,10.10
2011,01,13,16,21,10.10
2011,01,13,16,22,10.10
2011,01,13,16,23,10.10
2011,01,13,16,24,10.10
2011,01,13,16,25,10.10
2011,01,13,16,26,10.10
2011,01,13,16,27,10.10
2011,01,13,16,28,10.10
2011,01,13,16,29,10.10
2011,01,13,16,30,10.10
2011,01,13,16,31,10.10
2011,01,13,16,32,10.10
2011,01,13,16,33,10.10
2011,01,13,16,34,10.10
2011,01,13,16,35,10.10
2011,01,13,16,36,10.10
2011,01,13,16,37,10.10
2011,01,13,16,38,10.10
2011,01,13,16,39,10.10
2011,01,13,16,40,10.10
2011,01,13,16,41,10.10
2011,01,13,16,42,10.10
2011,01,13,16,43,10.10
2011,01,13,16,44,10.10
2011,01,13,16,45,10.10
2011,01,13,16,46,10.10
2011,01,13,16,47,10.10
2011,01,13,16,48,10.10
2011,01,13,16,49,10.10
2011,01,13,16,50,10.10
2011,01,13,16,51,10.10
2011,01,13,16,52,10.10
2011,01,13,16,53,10.10
2011,01,13,16,54,10.10
2011,01,13,16,55,10.10
2011,01,13,16,56,10.10
2011,01,13,16,57,10.10
2011,01,13,16,58,10.10
2011,01,13,16,59,10.10
2011,01,13,17,00,10.10
2011,01,13,17,01,10.10
2011,01,13,17,02,10.20
2011,01,13,17,03,10.20
2011,01,13,17,04,10.20
2011,01,13,17,05,10.20
2011,01,13,17,06,10.20
2011,01,13,17,07,10.20
2011,01,13,17,08,10.20
2011,01,13,17,09,10.20
2011,01,13,17,10,10.20
2011,01,13,17,11,10.20
2011,01,13,17,12,10.20
2011,01,13,17,13,10.20
2011,01,13,17,14,10.20
2011,01,13,17,15,10.20
2011,01,13,17,16,10.20
2011,01,13,17,17,10.20
2011,01,13,17,18,10.20
2011,01,13,17,19,10.20
2011,01,13,17,20,10.20
2011,01,13,17,21,10.20
2011,01,13,17,22,10.20
2011,01,13,17,23,10.20
2011,01,13,17,24,10.20
2011,01,13,17,25,10.20
2011,01,13,17,26,10.20
2011,01,13,17,27,10.20
2011,01,13,17,28,10.20
2011,01,13,17,29,10.20
2011,01,13,17,30,10.20
2011,01,13,17,31,10.20
2011,01,13,17,32,10.20
2011,01,13,17,33,10.20
2011,01,13,17,34,10.20
2011,01,13,17,35,10.20
2011,01,13,17,36,10.20
2011,01,13,17,37,10.20
2011,01,13,17,38,10.20
2011,01,13,17,39,10.20
2011,01,13,17,40,10.20
2011,01,13,17,41,10.20
2011,01,13,17,42,10.10
2011,01,13,17,43,10.10
2011,01,13,17,44,10.10
2011,01,13,17,45,10.10
2011,01,13,17,46,10.10
2011,01,13,17,47,10.10
2011,01,13,17,48,10.10
2011,01,13,17,49,10.10
2011,01,13,17,50,10.10
2011,01,13,17,51,10.10
2011,01,13,17,52,10.10
2011,01,13,17,53,10.10
2011,01,13,17,54,10.10
2011,01,13,17,55,10.10